Wind_Speed
24 24 25 25 25 24 24 24 22 20 19 19 18 16 16 17 21 18 8 11 8 11 6 4 3 5 5 4 4 4 1 5 7 8 5 3 5 1 2 5 2 2 1 1 26
25 25 26 26 26 26 25 26 26 23 20 22 16 15 14 15 20 13 15 10 10 7 4 5 4 8 3 3 3 4 4 9 7 6 4 5 6 7 4 4 4 2 3 17 32
27 27 28 28 28 26 26 27 27 25 22 24 18 13 11 10 5 4 4 6 6 6 5 5 4 4 3 3 5 6 7 5 5 6 5 4 3 7 6 5 8 11 9 16 21
27 28 29 30 31 31 31 31 31 25 23 25 18 11 5 3 5 4 8 6 5 4 4 4 3 4 5 7 5 4 9 5 1 3 5 4 6 5 7 6 2 8 17 16 18
29 30 31 32 32 33 33 33 32 28 28 27 14 7 3 2 9 7 7 5 5 6 6 5 4 5 5 4 3 5 4 3 4 5 4 4 7 7 10 7 5 10 14 19 18
30 31 33 33 34 34 34 35 30 29 31 25 9 6 3 5 4 7 5 5 5 6 4 7 5 4 4 4 6 1 2 5 4 4 4 5 2 5 11 8 8 11 13 15 18
30 32 35 35 35 35 35 36 28 30 27 11 5 9 2 10 3 5 3 2 4 4 3 5 4 4 1 4 3 2 5 5 7 5 6 6 5 11 9 5 7 8 10 12 15
31 33 34 35 36 37 40 33 26 29 10 4 5 6 7 2 4 4 4 3 4 3 2 2 3 3 3 3 5 4 1 3 1 5 2 6 5 8 5 8 10 10 9 11 14
32 34 36 38 38 39 34 27 30 7 1 5 7 3 8 1 1 3 2 2 3 2 1 3 2 2 1 2 4 2 5 5 8 7 4 6 4 2 2 5 8 8 9 11 12
32 35 36 38 39 38 27 27 9 3 4 5 4 2 2 3 1 1 0 0 0 2 2 3 4 1 2 4 7 6 5 4 6 3 3 4 14 11 5 6 11 10 11 13 14
36 40 39 42 39 26 25 8 5 4 5 3 1 4 2 2 1 2 2 1 2 3 4 2 1 10 15 7 1 2 3 5 6 4 4 9 12 14 7 6 13 16 14 11 9
44 45 44 46 36 14 11 5 2 4 8 5 4 4 6 2 3 1 2 2 2 4 4 4 8 8 3 5 7 6 6 10 7 1 6 7 16 11 11 10 15 18 6 9 9
46 47 46 46 26 12 6 6 7 3 3 6 3 1 1 1 1 2 2 1 2 2 4 5 2 3 5 3 5 5 6 5 9 4 3 6 11 6 5 5 3 7 7 7 17
47 48 44 48 5 17 2 11 10 1 3 3 1 1 0 2 1 1 1 1 1 2 5 5 3 2 1 4 7 5 3 4 2 3 4 3 9 4 5 4 8 8 8 6 9
50 49 45 27 13 8 7 15 8 2 5 3 1 1 0 0 1 1 1 2 3 3 4 5 1 1 3 4 5 4 3 1 1 2 4 2 1 5 2 3 5 9 10 8 4
50 51 46 11 8 8 15 19 0 4 4 5 1 4 4 1 1 2 1 2 2 1 1 5 1 1 1 3 2 1 2 3 3 2 2 5 7 6 2 2 7 5 8 6 5
51 52 20 9 6 20 13 3 4 4 5 6 4 7 4 5 2 3 3 3 2 6 3 3 1 2 2 2 3 2 3 3 3 1 6 4 2 7 5 2 3 7 10 4 5
49 35 10 15 16 15 8 4 1 2 3 3 5 6 2 7 4 5 3 2 6 3 2 3 3 4 4 2 1 1 1 2 5 2 4 2 5 5 4 4 4 6 6 2 4
44 27 5 19 19 10 4 3 3 4 5 8 9 4 3 4 5 7 2 1 4 4 3 5 4 0 2 1 1 2 1 3 3 4 2 3 5 5 3 5 5 5 3 2 1
33 11 8 22 14 4 4 1 2 4 6 4 3 5 5 7 7 8 2 2 2 1 1 2 6 1 1 2 1 4 6 3 2 4 4 4 5 3 2 2 3 2 4 3 2
13 4 10 23 5 4 3 2 3 4 6 5 3 5 4 4 4 3 4 0 2 3 4 4 6 3 1 7 8 3 2 3 1 3 3 2 5 4 6 7 2 2 4 6 7
8 3 17 20 4 2 2 6 5 3 2 3 1 1 3 2 2 3 5 5 3 3 3 3 3 5 8 2 2 2 5 4 3 4 4 2 5 5 2 2 1 6 6 4 4
5 3 8 8 3 2 4 4 3 3 4 4 3 3 2 3 3 3 4 2 3 2 2 2 2 5 4 2 4 1 4 5 3 1 4 3 5 2 2 5 6 7 5 3 3
3 4 3 4 2 3 1 3 4 4 2 3 4 3 5 2 3 3 6 3 1 5 10 4 4 7 7 7 3 5 6 8 7 3 4 6 14 5 4 7 9 7 7 6 1
1 2 1 4 1 1 2 2 4 3 1 3 4 1 4 4 5 5 3 5 4 6 2 3 6 6 8 11 14 14 16 9 10 15 7 16 4 6 4 4 5 6 7 6 2
2 2 1 3 3 3 2 4 3 3 4 4 5 4 2 5 8 14 10 3 6 4 3 2 7 3 14 13 13 14 12 12 14 16 12 13 15 3 3 2 3 4 5 4 1
4 3 2 4 2 3 4 5 5 4 6 8 3 1 7 13 8 12 12 11 10 9 10 4 3 2 7 3 4 5 7 7 2 3 5 6 4 1 1 2 3 6 5 5 1
Wind_Direction
3 359 358 357 354 352 352 349 344 339 337 326 307 297 298 305 307 302 242 243 210 212 241 259 229 199 179 187 142 141 134 232 223 176 242 139 189 39 66 115 271 169 136 285 160
2 -0 357 355 352 349 346 344 341 335 331 332 312 291 291 308 310 258 263 213 207 217 228 183 171 152 176 197 200 162 176 225 206 190 219 191 188 171 166 158 235 237 76 135 152
360 357 355 353 350 346 342 339 335 329 328 332 317 297 288 311 319 254 147 198 210 223 209 170 152 164 211 163 204 190 218 201 234 209 181 190 214 169 165 230 208 205 164 162 165
354 352 351 349 346 343 341 338 335 327 325 326 313 299 281 284 294 179 158 177 192 216 182 151 145 169 211 209 199 217 242 205 238 220 159 198 133 202 196 224 158 191 158 162 176
352 349 346 345 343 340 336 332 330 326 325 321 302 283 186 201 252 183 180 198 204 191 190 176 171 177 196 212 185 234 260 207 208 205 225 130 220 221 246 216 108 124 156 175 182
349 346 343 341 339 336 333 331 326 322 321 314 278 198 169 229 181 178 191 188 191 199 202 184 211 217 233 236 184 263 263 258 248 238 234 206 255 141 259 160 154 159 177 183 185
348 346 343 339 336 333 330 328 323 319 319 307 242 182 211 247 220 198 197 202 193 203 201 208 206 184 192 281 308 321 306 305 226 212 220 161 242 223 238 135 175 184 187 190 191
347 345 341 337 335 335 330 323 319 317 320 302 172 168 245 263 216 236 266 222 195 197 209 191 182 193 209 289 348 295 120 284 283 145 225 150 262 255 174 169 207 209 199 194 194
346 345 341 337 338 335 331 324 318 324 276 145 139 161 270 342 304 227 217 199 184 177 161 123 107 181 35 130 353 306 261 219 312 191 136 187 270 256 134 208 245 221 208 200 196
346 345 340 336 338 337 333 324 326 132 122 136 111 87 331 355 16 2 337 323 109 115 88 110 58 140 55 124 238 229 236 246 242 208 196 211 251 265 228 203 240 231 218 207 200
347 349 344 340 338 338 343 351 12 342 13 285 275 274 59 321 202 13 6 101 96 87 182 42 126 221 212 212 320 245 229 250 250 199 188 238 250 261 258 231 254 250 228 215 192
346 346 343 341 340 350 11 61 41 274 304 301 265 252 257 269 324 36 355 175 167 191 119 39 241 242 172 196 237 261 280 274 286 182 203 290 271 245 249 233 228 252 249 184 158
342 344 341 338 339 359 48 38 341 320 288 302 291 351 306 57 179 336 1 156 179 165 191 175 229 38 166 190 212 227 215 248 257 322 232 314 278 238 270 261 319 2 311 178 173
338 339 340 338 345 341 58 1 349 42 352 273 231 318 292 111 170 251 4 158 206 211 167 232 310 301 204 243 173 275 234 258 270 23 259 3 292 197 224 276 40 1 347 297 163
335 336 336 337 292 312 330 337 339 106 358 330 358 304 36 99 266 25 334 74 229 182 129 252 262 299 227 233 172 260 41 76 104 165 356 209 232 263 221 237 329 340 359 357 161
337 335 334 355 319 315 321 324 141 44 262 352 342 337 345 112 59 358 355 46 52 332 256 259 296 4 335 40 32 55 15 52 60 106 301 226 176 291 7 258 303 325 344 10 82
337 336 343 353 315 327 327 352 24 129 338 341 342 333 345 333 29 40 18 22 9 346 343 335 33 11 22 329 45 60 67 306 285 6 233 325 133 254 281 211 256 306 302 312 132
336 342 357 10 346 334 330 43 196 12 353 0 335 304 4 10 357 340 1 354 52 29 316 325 318 14 349 86 160 61 345 204 278 253 286 359 237 258 232 269 252 269 288 38 97
337 344 351 347 345 345 57 42 352 6 323 336 320 354 6 14 9 7 335 82 38 10 15 346 278 104 44 47 74 23 137 152 285 221 224 225 288 338 39 17 6 353 356 352 158
333 322 312 343 332 2 72 221 97 39 311 347 309 22 344 344 346 358 295 105 122 150 286 197 289 182 192 129 16 202 165 198 180 272 252 301 286 222 45 353 309 304 277 268 234
334 342 346 352 3 44 86 337 329 51 13 8 331 315 300 3 316 304 310 128 147 199 235 201 208 216 151 207 182 165 202 207 234 205 244 284 269 217 180 170 201 253 237 220 225
340 326 355 350 59 33 31 315 319 335 328 314 164 294 288 351 261 255 245 33 151 16 318 250 245 240 224 92 44 137 193 168 226 243 236 206 260 222 248 271 236 280 286 269 226
319 279 346 352 88 46 309 294 271 322 344 337 292 197 286 259 289 258 301 182 120 100 202 331 298 307 290 348 6 240 217 196 234 274 218 227 260 244 283 278 270 281 302 277 249
331 327 327 31 34 109 346 277 302 326 104 324 302 328 357 296 259 294 283 280 241 211 269 235 226 252 271 285 205 246 229 217 204 219 211 226 263 286 23 333 323 334 322 318 287
5 289 51 313 312 32 219 269 282 269 31 278 318 211 49 298 310 261 255 322 301 292 339 239 267 251 272 281 282 269 261 235 214 241 234 267 227 290 313 296 314 336 328 330 344
292 335 344 266 287 222 259 225 247 195 199 268 204 296 173 215 229 277 275 215 244 309 232 220 273 317 286 278 262 267 261 256 249 253 251 262 279 119 62 19 340 333 343 1 11
237 247 269 259 236 184 222 225 223 134 272 222 229 13 300 280 247 246 248 254 248 257 270 217 239 258 278 311 306 309 235 251 278 256 221 234 232 35 164 318 335 328 339 330 307
Height
816 812 808 804 800 797 793 789 786 783 780 777 774 773 772 770 767 766 763 758 757 758 759 760 760 763 765 766 766 770 784 787 772 773 759 765 764 767 769 772 774 773 774 777 781
816 811 807 803 799 796 792 788 784 780 777 774 771 769 768 767 764 759 754 753 755 756 756 758 760 762 766 765 766 770 782 768 759 756 754 759 762 764 766 770 772 774 776 777 780
815 810 806 801 797 793 789 785 781 777 774 771 768 766 766 764 763 752 751 753 754 755 756 756 758 760 764 763 763 764 766 757 749 749 751 755 759 762 763 766 761 761 770 776 779
815 810 805 800 795 791 786 781 777 773 769 767 765 763 764 765 765 747 749 751 752 754 756 756 758 762 764 763 756 761 752 750 746 748 752 754 758 759 760 743 745 749 759 770 775
814 808 803 797 792 787 782 778 773 769 765 763 760 761 763 763 755 747 748 749 749 751 753 756 758 759 761 758 755 757 750 747 746 748 750 753 752 753 750 745 748 751 757 761 767
812 807 801 795 790 784 779 774 769 765 761 758 758 759 762 764 745 746 747 748 749 750 752 754 755 754 756 755 755 749 748 747 747 749 751 751 752 753 736 740 748 751 756 759 760
812 806 800 794 788 782 776 770 765 760 756 753 754 757 759 751 747 747 747 747 748 749 750 751 752 754 754 753 749 749 750 749 747 745 747 750 753 749 730 744 748 751 753 755 757
812 805 798 792 786 779 772 764 760 755 753 752 753 756 755 745 746 746 748 747 748 748 749 750 751 753 754 751 753 752 753 753 740 749 746 745 733 729 739 742 743 748 751 752 754
811 803 796 789 782 775 767 760 755 751 750 749 752 755 753 747 747 747 747 747 748 749 749 750 752 756 754 760 765 763 760 761 748 747 749 750 738 728 741 745 741 744 746 749 752
808 801 794 787 779 771 764 755 750 751 751 751 751 757 749 748 748 748 748 748 749 749 751 752 760 764 769 768 764 762 762 760 751 744 751 753 748 733 736 742 736 736 738 741 743
807 799 792 783 776 768 761 754 757 755 752 749 749 748 745 746 747 748 749 749 749 750 756 756 764 762 748 757 749 748 752 752 745 742 747 747 738 729 728 740 732 724 726 733 742
804 797 790 781 773 768 764 766 773 773 765 750 749 749 745 745 748 749 750 752 751 755 755 763 766 749 748 755 758 758 759 757 747 745 750 745 730 730 722 719 713 708 719 728 738
804 797 789 780 771 768 768 772 772 772 772 754 747 747 748 747 748 751 752 751 751 755 761 762 745 747 749 752 755 758 761 755 749 749 752 753 721 720 709 710 710 721 720 720 727
802 796 791 780 774 772 770 770 770 770 774 749 748 747 747 746 748 750 751 752 749 749 758 760 751 746 747 748 754 755 751 752 747 751 760 754 730 704 697 699 725 735 733 729 728
801 794 787 781 779 775 774 769 768 771 771 747 748 748 746 746 748 750 751 750 748 746 753 742 743 746 749 747 751 745 755 753 756 761 771 758 761 709 707 699 739 740 737 734 733
799 791 783 777 778 777 773 770 769 772 780 753 749 747 745 747 750 753 751 752 754 754 756 755 756 754 757 764 762 761 756 762 775 772 790 749 748 733 740 748 745 749 740 740 741
797 790 782 780 778 775 771 771 779 777 751 757 755 753 751 750 746 750 752 753 756 754 753 753 756 764 764 757 763 759 758 756 753 791 748 763 761 740 753 763 766 760 755 747 741
797 788 786 782 779 775 773 773 761 761 761 761 758 757 748 759 752 753 751 755 770 764 769 767 760 765 768 766 768 766 766 763 741 755 767 777 770 744 761 768 762 759 758 747 746
796 786 783 783 779 774 779 793 781 781 779 773 767 760 756 758 762 758 755 765 783 782 773 778 763 767 767 768 767 777 777 776 780 774 764 749 743 740 744 750 751 751 749 750 750
798 791 786 780 778 777 785 777 778 784 783 775 772 770 774 772 772 770 761 772 777 777 774 775 774 768 768 770 771 768 773 770 776 761 748 769 763 740 740 749 753 752 753 753 752
802 798 785 779 778 784 790 792 786 782 781 782 780 779 776 784 783 780 770 768 773 774 775 774 776 764 768 769 766 777 779 777 774 767 750 748 760 757 741 746 749 749 752 752 750
811 802 786 779 787 802 802 800 791 786 785 783 782 783 779 785 785 776 774 770 777 777 782 784 784 776 760 775 773 779 781 773 759 773 752 749 751 762 756 754 752 751 746 745 748
818 807 788 784 795 805 801 798 792 789 788 786 782 783 782 792 793 777 774 783 778 779 783 783 775 764 760 773 784 782 772 762 761 762 750 747 756 762 761 752 745 745 741 743 745
824 812 800 796 802 804 805 799 795 791 795 796 791 785 789 785 786 790 782 776 778 778 771 774 776 764 753 755 754 765 761 764 757 753 764 743 724 731 747 742 740 743 744 744 746
822 817 813 812 805 806 806 801 798 796 795 796 796 789 797 796 801 795 782 787 781 775 780 775 774 770 760 754 751 748 742 746 753 746 746 727 751 738 741 748 748 749 748 745 746
825 819 814 812 809 807 803 802 795 796 800 798 801 793 805 812 796 792 795 798 783 791 774 778 771 768 762 755 754 749 746 746 744 738 738 741 737 738 742 747 752 754 750 746 746
819 818 815 807 808 807 806 797 792 796 792 790 792 803 798 788 785 783 780 777 775 774 774 779 772 771 763 755 757 765 756 742 750 739 732 736 739 744 744 748 753 754 752 748 745